When you browse on this site, cookies collect data to enhance your experience and personalize the content and advertising you see.
Visit our Privacy Policy to learn more. By continuing to use the site, you agree to this use of cookies and data.
  • în România
  • Lista ţărilor
  • Pe 7 zile
  • Temperatura apei
  • Meteo pe hartă
  • Widget-uri
  • user-avatar
    Intrare

    Meteo pe oră la Bururi

    Astăzi, 28 Februarie, Vineri

    Timp Temperatura Precipitaţii Vânt Presiune Umiditate
    00:00 +18°C° 0.1 mm 1 m/s 616 mmHg 92%
    01:00 +18°C° 0.1 mm 1 m/s 616 mmHg 91%
    02:00 +18°C° 0 mm 1 m/s 616 mmHg 90%
    03:00 +18°C° 0 mm 1 m/s 616 mmHg 90%
    04:00 +16°C° 0 mm 0 m/s 616 mmHg 90%
    05:00 +16°C° 0 mm 0 m/s 615 mmHg 90%
    06:00 +18°C° 0.2 mm 1 m/s 616 mmHg 89%
    07:00 +19°C° 0.2 mm 1 m/s 617 mmHg 89%
    08:00 +19°C° 0 mm 1 m/s 618 mmHg 91%
    09:00 +19°C° 0.6 mm 1 m/s 618 mmHg 91%
    10:00 +19°C° 0.6 mm 1 m/s 618 mmHg 91%
    11:00 +20°C° 0.6 mm 1 m/s 618 mmHg 92%
    12:00 +20°C° 0.9 mm 1 m/s 617 mmHg 92%
    13:00 +20°C° 0.9 mm 1 m/s 617 mmHg 92%
    14:00 +20°C° 0 mm 1 m/s 617 mmHg 92%
    15:00 +20°C° 1 mm 1 m/s 617 mmHg 92%
    16:00 +19°C° 1 mm 1 m/s 617 mmHg 93%
    17:00 +19°C° 1 mm 1 m/s 616 mmHg 94%
    18:00 +18°C° 1.9 mm 1 m/s 617 mmHg 94%
    19:00 +18°C° 1.9 mm 1 m/s 617 mmHg 95%
    20:00 +16°C° 1.9 mm 1 m/s 617 mmHg 95%
    21:00 +16°C° 0.4 mm 1 m/s 617 mmHg 95%
    22:00 +16°C° 0.4 mm 1 m/s 617 mmHg 94%
    23:00 +16°C° 0.4 mm 1 m/s 617 mmHg 94%

    Mâine, 29 Februarie, Sâmbătă

    Timp Temperatura Precipitaţii Vânt Presiune Umiditate
    00:00 +16°C° 0 mm 1 m/s 616 mmHg 94%
    01:00 +16°C° 0 mm 1 m/s 616 mmHg 93%
    02:00 +16°C° 0 mm 1 m/s 616 mmHg 93%
    03:00 +16°C° 0 mm 1 m/s 616 mmHg 93%
    04:00 +14°C° 0 mm 0 m/s 616 mmHg 92%
    05:00 +14°C° 0 mm 0 m/s 615 mmHg 91%
    06:00 +15°C° 0 mm 0 m/s 616 mmHg 90%
    07:00 +16°C° 0 mm 0 m/s 617 mmHg 89%
    08:00 +17°C° 0 mm 0 m/s 618 mmHg 87%
    09:00 +19°C° 0.1 mm 0 m/s 618 mmHg 81%
    10:00 +22°C° 0.1 mm 1 m/s 618 mmHg 75%
    11:00 +24°C° 0.1 mm 1 m/s 619 mmHg 69%
    12:00 +24°C° 0.8 mm 1 m/s 618 mmHg 73%
    13:00 +23°C° 0.8 mm 1 m/s 617 mmHg 78%
    14:00 +23°C° 0.8 mm 1 m/s 616 mmHg 83%
    15:00 +22°C° 0.6 mm 1 m/s 616 mmHg 85%
    16:00 +22°C° 0.6 mm 1 m/s 615 mmHg 86%
    17:00 +22°C° 0.6 mm 1 m/s 615 mmHg 87%
    18:00 +21°C° 0.3 mm 1 m/s 615 mmHg 88%
    19:00 +20°C° 0.3 mm 1 m/s 615 mmHg 88%
    20:00 +19°C° 0.3 mm 1 m/s 615 mmHg 89%
    21:00 +18°C° 0 mm 1 m/s 615 mmHg 88%
    22:00 +18°C° 0 mm 1 m/s 616 mmHg 87%
    23:00 +18°C° 0 mm 1 m/s 616 mmHg 87%

    Poimâine, 1 Martie, Duminică

    Timp Temperatura Precipitaţii Vânt Presiune Umiditate
    00:00 +18°C° 0.1 mm 1 m/s 616 mmHg 86%
    01:00 +16°C° 0.1 mm 1 m/s 616 mmHg 86%
    02:00 +16°C° 0.1 mm 1 m/s 615 mmHg 85%
    03:00 +16°C° 0.1 mm 1 m/s 615 mmHg 85%
    04:00 +16°C° 0.1 mm 1 m/s 615 mmHg 85%
    05:00 +16°C° 0.1 mm 1 m/s 615 mmHg 85%
    06:00 +18°C° 0 mm 1 m/s 616 mmHg 83%
    07:00 +18°C° 0 mm 0 m/s 617 mmHg 82%
    08:00 +19°C° 0 mm 0 m/s 618 mmHg 81%
    09:00 +20°C° 0.5 mm 0 m/s 618 mmHg 78%
    10:00 +23°C° 0.5 mm 1 m/s 618 mmHg 76%
    11:00 +24°C° 0.5 mm 1 m/s 618 mmHg 74%
    12:00 +24°C° 1 mm 1 m/s 617 mmHg 74%
    13:00 +24°C° 1 mm 1 m/s 617 mmHg 74%
    14:00 +24°C° 1 mm 1 m/s 616 mmHg 74%
    15:00 +23°C° 0.9 mm 1 m/s 616 mmHg 78%
    16:00 +23°C° 0.9 mm 1 m/s 615 mmHg 82%
    17:00 +22°C° 0.9 mm 1 m/s 615 mmHg 86%
    18:00 +21°C° 0.2 mm 1 m/s 615 mmHg 86%
    19:00 +20°C° 0.2 mm 1 m/s 615 mmHg 87%
    20:00 +18°C° 0.2 mm 1 m/s 616 mmHg 88%
    21:00 +18°C° 0.3 mm 1 m/s 616 mmHg 88%
    22:00 +18°C° 0.3 mm 1 m/s 616 mmHg 89%
    23:00 +18°C° 0.3 mm 1 m/s 616 mmHg 89%

    2 Martie, Luni

    Timp Temperatura Precipitaţii Vânt Presiune Umiditate
    00:00 +18°C° 0.4 mm 1 m/s 616 mmHg 89%
    01:00 +18°C° 0.4 mm 1 m/s 616 mmHg 90%
    02:00 +18°C° 0.4 mm 1 m/s 616 mmHg 90%
    03:00 +18°C° 0.7 mm 1 m/s 616 mmHg 91%
    04:00 +16°C° 0.7 mm 1 m/s 616 mmHg 93%
    05:00 +16°C° 0.7 mm 1 m/s 616 mmHg 94%
    06:00 +18°C° 0.5 mm 1 m/s 616 mmHg 93%
    07:00 +18°C° 0.5 mm 1 m/s 617 mmHg 93%
    08:00 +19°C° 0.5 mm 1 m/s 618 mmHg 92%
    09:00 +18°C° 2.2 mm 1 m/s 618 mmHg 93%
    10:00 +18°C° 2.2 mm 1 m/s 618 mmHg 93%
    11:00 +17°C° 2.2 mm 2 m/s 618 mmHg 94%
    12:00 +17°C° 0.9 mm 2 m/s 617 mmHg 93%
    13:00 +17°C° 0.9 mm 2 m/s 616 mmHg 93%
    14:00 +17°C° 0.9 mm 2 m/s 616 mmHg 92%
    15:00 +17°C° 0.2 mm 2 m/s 616 mmHg 93%
    16:00 +17°C° 0.2 mm 2 m/s 616 mmHg 94%
    17:00 +17°C° 0.2 mm 2 m/s 616 mmHg 95%
    18:00 +16°C° 0 mm 2 m/s 616 mmHg 93%
    19:00 +16°C° 0 mm 1 m/s 616 mmHg 90%
    20:00 +16°C° 0 mm 1 m/s 617 mmHg 88%
    21:00 +16°C° 0 mm 1 m/s 617 mmHg 86%
    22:00 +16°C° 0 mm 1 m/s 617 mmHg 85%
    23:00 +16°C° 0 mm 1 m/s 617 mmHg 83%

    3 Martie, Marţi

    Timp Temperatura Precipitaţii Vânt Presiune Umiditate
    00:00 +16°C° 0 mm 1 m/s 617 mmHg 83%
    01:00 +16°C° 0 mm 1 m/s 617 mmHg 82%
    02:00 +16°C° 0 mm 1 m/s 616 mmHg 82%
    03:00 +18°C° 0 mm 1 m/s 616 mmHg 81%
    04:00 +18°C° 0 mm 1 m/s 616 mmHg 79%
    05:00 +18°C° 0 mm 1 m/s 617 mmHg 77%
    06:00 +18°C° 0 mm 1 m/s 617 mmHg 78%
    07:00 +19°C° 0 mm 1 m/s 618 mmHg 79%
    08:00 +19°C° 0 mm 1 m/s 618 mmHg 80%
    09:00 +20°C° 0.2 mm 1 m/s 619 mmHg 78%
    10:00 +21°C° 0.2 mm 1 m/s 619 mmHg 77%
    11:00 +22°C° 0.2 mm 1 m/s 619 mmHg 75%
    12:00 +22°C° 0.6 mm 1 m/s 618 mmHg 77%
    13:00 +22°C° 0.6 mm 1 m/s 618 mmHg 79%
    14:00 +22°C° 0.6 mm 1 m/s 617 mmHg 81%
    15:00 +22°C° 0.3 mm 1 m/s 617 mmHg 82%
    16:00 +22°C° 0.3 mm 1 m/s 616 mmHg 83%
    17:00 +21°C° 0.3 mm 1 m/s 616 mmHg 83%
    18:00 +20°C° 0 mm 1 m/s 616 mmHg 84%
    19:00 +19°C° 0 mm 1 m/s 616 mmHg 85%
    20:00 +18°C° 0 mm 1 m/s 617 mmHg 86%
    21:00 +18°C° 0 mm 1 m/s 617 mmHg 83%
    22:00 +18°C° 0 mm 1 m/s 617 mmHg 81%
    23:00 +16°C° 0 mm 1 m/s 617 mmHg 78%

    4 Martie, Miercuri

    Timp Temperatura Precipitaţii Vânt Presiune Umiditate
    00:00 +16°C° 0 mm 1 m/s 617 mmHg 78%
    01:00 +16°C° 0 mm 1 m/s 617 mmHg 78%
    02:00 +16°C° 0 mm 1 m/s 616 mmHg 78%
    03:00 +16°C° 0 mm 1 m/s 616 mmHg 78%
    04:00 +18°C° 0 mm 1 m/s 617 mmHg 78%
    05:00 +18°C° 0 mm 1 m/s 617 mmHg 78%
    06:00 +18°C° 0 mm 1 m/s 617 mmHg 78%
    07:00 +19°C° 0 mm 1 m/s 618 mmHg 79%
    08:00 +18°C° 0 mm 0 m/s 619 mmHg 79%
    09:00 +19°C° 0.4 mm 0 m/s 619 mmHg 78%
    10:00 +20°C° 0.4 mm 0 m/s 619 mmHg 76%
    11:00 +21°C° 0.4 mm 0 m/s 619 mmHg 75%
    12:00 +21°C° 1 mm 0 m/s 618 mmHg 76%
    13:00 +21°C° 1 mm 0 m/s 617 mmHg 78%
    14:00 +21°C° 1 mm 0 m/s 617 mmHg 79%
    15:00 +22°C° 0.7 mm 1 m/s 616 mmHg 81%
    16:00 +22°C° 0.7 mm 1 m/s 616 mmHg 83%
    17:00 +21°C° 0.7 mm 1 m/s 616 mmHg 86%
    18:00 +20°C° 0.1 mm 1 m/s 616 mmHg 85%
    19:00 +19°C° 0.1 mm 1 m/s 616 mmHg 85%
    20:00 +18°C° 0.1 mm 1 m/s 616 mmHg 85%
    21:00 +18°C° 0 mm 1 m/s 616 mmHg 84%
    22:00 +16°C° 0 mm 1 m/s 617 mmHg 84%
    23:00 +16°C° 0 mm 1 m/s 617 mmHg 83%
    Arată mai mult